sat.trackr.live / text

‹ back to catalog

LEMUR-2-PETERG

NORAD 42841 · 2017-042S

PAYLOAD ACTIVE UNKNOWN

§ Identity

Operator
Country
US
Launch date
2017-07-14
Launch site
TYMSC
Launch vehicle
Mass (kg)
RCS (m²)

Purposes: earth_obs

External: N2YO · Heavens-Above · Gunter

§ Orbital elements

Epoch: 2026-09-03T10:25:35.584032Z

Period
93.69 min
Inclination
97.4014°
Eccentricity
0.0004756
Mean motion
15.37012807 rev/d
Perigee alt
451.7 km
Apogee alt
458.2 km
Semi-major
6,833.1 km
B*
4.8364e-4
RAAN
71.7869°
Arg perigee
67.4924°
Mean anomaly
292.6824°
Rev number
50,044

§ Raw data

LEMUR-2-PETERG1 42841U 17042S   26246.43443963  .00017455  00000+0  48364-3 0  99982 42841  97.4014  71.7869 0004756  67.4924 292.6824 15.37012807500448

JSON: /api/v1/satellites/42841 · /tle

For live sub-satellite position, see the globe view (requires WebGL).

§ Visibility from observer

Set your observer location to see the next 7 days of passes ≥ 10°. The values pass through the URL so the page stays shareable.

No JS? Fill the form by hand. The geolocation button needs JavaScript.

§ Radio — SatNOGS DB

ModeDescriptionDownlinkUplink
FM Mode U - Unknown 402.700 MHz

1 transmitter · refreshed weekly from db.satnogs.org